This is the latest recevied weather packets stored in our database for station/object W0AKY-13. If no packets are shown the sender has not sent any weather packets the latest 10 day(s).
| Time | Temp. | Humidity | Pressure | Rain* | Wind** | Luminosity | Snow |
|---|---|---|---|---|---|---|---|
| 1777699961 | 2.78° C | 81% | 1022.2 hPa | 0 mm | - | 0 W/m² | - |
| 1777699659 | 3.33° C | 81% | 1022.1 hPa | 0 mm | - | 0 W/m² | - |
| 1777699357 | 3.33° C | 80% | 1022 hPa | 0 mm | - | 0 W/m² | - |
| 1777699054 | 3.33° C | 79% | 1022.2 hPa | 0 mm | - | 0 W/m² | - |
| 1777698753 | 3.89° C | 78% | 1021.9 hPa | 0 mm | - | 0 W/m² | - |
| 1777698449 | 3.89° C | 80% | 1022.1 hPa | 0 mm | - | 0 W/m² | - |
| 1777698145 | 3.89° C | 81% | 1022.1 hPa | 0 mm | - | 0 W/m² | - |
| 1777697842 | 3.89° C | 81% | 1021.9 hPa | 0 mm | - | 0 W/m² | - |
| 1777697539 | 3.89° C | 79% | 1022 hPa | 0 mm | - | 0 W/m² | - |
| 1777697236 | 3.89° C | 80% | 1022.2 hPa | 0 mm | - | 0 W/m² | - |
| 1777696932 | 4.44° C | 81% | 1022.2 hPa | 0 mm | - | 0 W/m² | - |
| 1777696630 | 4.44° C | 81% | 1021.9 hPa | 0 mm | - | 0 W/m² | - |
| 1777696327 | 4.44° C | 80% | 1022.2 hPa | 0 mm | - | 0 W/m² | - |
| 1777696026 | 4.44° C | 79% | 1022 hPa | 0 mm | - | 0 W/m² | - |
| 1777695724 | 5° C | 79% | 1022.1 hPa | 0 mm | - | 0 W/m² | - |
| 1777695421 | 4.44° C | 78% | 1022 hPa | 0 mm | - | 0 W/m² | - |
| 1777695118 | 5° C | 77% | 1022 hPa | 0 mm | - | 0 W/m² | - |
| 1777694815 | 5° C | 76% | 1021.8 hPa | 0 mm | - | 0 W/m² | - |
| 1777694513 | 5° C | 76% | 1022.1 hPa | 0 mm | - | 0 W/m² | - |
| 1777694208 | 5° C | 76% | 1021.7 hPa | 0 mm | - | 0 W/m² | - |
| 1777693905 | 5° C | 75% | 1021.8 hPa | 0 mm | - | 0 W/m² | - |
| 1777693603 | 5.56° C | 74% | 1022.1 hPa | 0 mm | - | 0 W/m² | - |
| 1777693302 | 5.56° C | 73% | 1022 hPa | 0 mm | - | 0 W/m² | - |
| 1777692999 | 5.56° C | 70% | 1021.8 hPa | 0 mm | - | 0 W/m² | - |
| 1777692697 | 5.56° C | 69% | 1021.7 hPa | 0 mm | - | 0 W/m² | - |
* Rain latest hour (hover to see other rain measurements)
** Current wind speed in m/s (hover to see current wind gust speed)